Location: Croisilles
(50.1998°N, 2.8793°E)
Time: 11:52:33
(UTC+00:00)

CZ-4 R/B - Pass Details

Date: 21 January 2021
Orbit: 530 x 599 km, 97.7° (Epoch: 26 February)

Event Time Altitude Azimuth Distance (km) Brightness Sun altitude
Rises 19:27:49 0° 207° (SSW) 2,795 5.2 -29.0°
Reaches altitude 10° 19:30:37 10° 227° (SW) 1,889 4.5 -29.4°
Maximum altitude 19:33:20 17° 269° (W) 1,475 4.2 -29.9°
Drops below altitude 10° 19:36:03 10° 311° (NW) 1,872 4.6 -30.3°
Sets 19:38:49 0° 332° (NNW) 2,760 5.3 -30.7°
